Lid_Strength_Index
13 13 13 13 12 12 12 13 13 12 13 13 13 13 13 13 13 13 13 12 12 11 11 11 11 11 11 10 11 10 10 10
13 13 13 13 13 13 13 13 13 13 14 14 14 14 14 14 14 14 13 13 13 12 12 12 12 12 12 12 12 12 11 11
12 13 13 13 13 13 13 14 14 14 14 14 14 15 15 15 15 14 15 14 14 13 13 13 14 13 13 13 13 13 12 12
12 12 14 14 14 14 14 14 14 14 15 16 16 16 16 16 15 15 15 15 15 14 14 14 14 14 14 13 13 13 13 13
12 12 13 14 14 15 14 15 15 15 15 16 16 16 16 16 16 15 15 15 15 15 15 14 14 14 14 14 13 13 13 13
11 11 13 14 15 15 15 15 15 16 16 16 16 16 16 16 16 16 16 15 15 15 15 15 15 14 14 14 13 14 14 14
10 11 12 14 14 14 16 15 15 16 16 16 16 16 16 16 16 16 16 16 16 16 16 15 15 13 13 13 14 14 14 14
10 11 11 13 14 15 16 16 16 16 17 16 16 17 17 16 17 17 17 17 17 17 16 16 15 13 12 13 14 14 14 14
10 10 12 14 15 15 16 16 16 17 17 17 17 17 17 17 17 18 17 17 17 16 16 16 15 13 13 14 14 15 15 15
9 11 15 16 16 16 16 17 17 17 17 17 18 18 18 19 18 17 17 17 17 16 16 16 16 14 13 15 15 15 15 15
14 16 17 17 16 16 16 17 17 17 18 18 18 18 19 19 18 17 17 17 16 16 16 16 16 15 14 14 16 16 17 16
16 17 17 17 16 16 17 18 17 18 18 19 19 19 19 19 18 18 18 17 18 17 17 17 16 16 14 14 16 16 18 18
18 18 18 16 16 17 18 18 19 19 19 20 21 20 20 23 20 20 20 20 20 20 19 18 17 16 15 15 15 16 19 19
18 19 18 17 17 18 20 20 20 21 22 22 21 21 20 22 21 21 22 22 21 20 21 20 18 18 16 17 16 17 18 18
19 19 20 18 18 20 20 21 22 23 22 22 21 21 21 20 20 22 23 23 21 22 24 23 21 20 19 18 19 18 19 19
19 20 21 21 22 22 23 23 23 22 22 21 22 22 22 21 22 21 21 21 25 27 25 27 28 21 17 18 19 19 18 25
21 21 22 23 25 25 25 23 23 23 23 23 23 23 23 23 23 20 20 20 19 19 21 23 19 18 17 17 17 18 18 32
22 22 24 26 27 27 27 26 25 24 24 25 24 24 24 24 24 27 23 21 21 21 20 20 20 19 18 18 18 20 23 35
24 25 26 27 29 28 28 27 27 27 25 25 25 25 25 25 25 26 28 29 28 23 22 21 20 19 18 19 24 33 30 34
26 27 28 29 30 29 28 28 27 26 26 26 26 26 26 26 26 26 27 27 29 29 26 25 22 20 20 21 33 35 35 34